New York, NY

7:01 PM EDT on July 27, 2017 (GMT -0400)
La Guardia

Weather History for KLGA - November, 2014

Change the Weather History Date:

Saturday, November 15, 2014

  Actual Average Record
Temperature  
Mean Temperature 38 °F 48 °F  
Max Temperature 42 °F 55 °F 80 °F (1993)
Min Temperature 34 °F 42 °F 22 °F (1967)
Degree Days  
Heating Degree Days 27 17  
Month to date heating degree days 228 216  
Since 1 July heating degree days 404 488  
Cooling Degree Days 0 0  
Month to date cooling degree days 0 0  
Year to date cooling degree days 1192 1213  
Moisture  
Dew Point 19 °F    
Average Humidity 47    
Maximum Humidity 61    
Minimum Humidity 33    
Precipitation  
Precipitation 0.00 in 0.11 in 1.61 in (2016)
Month to date precipitation 0.72 1.64  
Year to date precipitation 40.91 39.40  
Snow  
Snow 0.00 in 0.00 in - ()
Month to date snowfall 0.0 0.0  
Since 1 July snowfall 0.0 0.0  
Snow Depth 0.00 in    
Sea Level Pressure  
Sea Level Pressure 30.31 in    
Wind  
Wind Speed 9 mph (NW)    
Max Wind Speed 17 mph    
Max Gust Speed 22 mph    
Visibility 10 miles    
Events      
T = Trace of Precipitation, MM = Missing Value Source: NWS Daily Summary

Daily Weather History Graph

Daily Weather History Graph

Search for Another Location

Airport or City:

Trip Planner

Search our weather history database for the weather conditions in past years. The results will help you decide how hot, cold, wet, or windy it might be!

Date:

Astronomy

Nov. 15, 2014 Rise Set
Actual Time 6:42 AM EST 4:37 PM EST
Civil Twilight 6:13 AM EST 5:06 PM EST
Nautical Twilight 5:39 AM EST 5:39 PM EST
Astronomical Twilight 5:07 AM EST 6:12 PM EST
Moon No Moon Rise 1:01 PM EST (11/15)
Length of Visible Light 10h 53m
Length of Day
9h 54m
Last Quarter, 40% of the Moon is Illuminated
Nov 15
Last Quarter
Nov 22
New
Nov 29
First Quarter
Dec 6
Full
Dec 14
Last Quarter

Hourly Weather History & Observations

Time (EST) Temp. Windchill Dew Point Humidity Pressure Visibility Wind Dir Wind Speed Gust Speed Precip Events Conditions
12:51 AM 37.0 °F 29.3 °F 19.9 °F 50% 30.19 in 10.0 mi WNW 11.5 mph - N/A   Partly Cloudy
1:51 AM 36.0 °F 28.5 °F 21.0 °F 55% 30.21 in 10.0 mi WNW 10.4 mph - N/A   Scattered Clouds
2:51 AM 36.0 °F 28.0 °F 21.0 °F 55% 30.22 in 10.0 mi NNW 11.5 mph - N/A   Clear
3:51 AM 35.1 °F 27.9 °F 21.0 °F 57% 30.24 in 10.0 mi NNW 9.2 mph - N/A   Partly Cloudy
4:51 AM 35.1 °F 25.9 °F 21.9 °F 59% 30.25 in 10.0 mi NW 13.8 mph - N/A   Partly Cloudy
5:51 AM 35.1 °F 27.9 °F 21.9 °F 59% 30.26 in 10.0 mi WNW 9.2 mph - N/A   Partly Cloudy
6:51 AM 34.0 °F 25.5 °F 21.0 °F 59% 30.30 in 10.0 mi NW 11.5 mph - N/A   Partly Cloudy
7:51 AM 34.0 °F 25.5 °F 21.0 °F 59% 30.32 in 10.0 mi WNW 11.5 mph - N/A   Partly Cloudy
8:51 AM 35.1 °F 26.9 °F 21.9 °F 59% 30.33 in 10.0 mi NW 11.5 mph 19.6 mph N/A   Partly Cloudy
9:51 AM 36.0 °F 28.0 °F 21.9 °F 57% 30.34 in 10.0 mi NW 11.5 mph - N/A   Partly Cloudy
10:51 AM 37.9 °F 30.5 °F 19.9 °F 48% 30.34 in 10.0 mi NW 11.5 mph 20.7 mph N/A   Partly Cloudy
11:51 AM 39.0 °F 32.3 °F 18.0 °F 43% 30.32 in 10.0 mi WNW 10.4 mph - N/A   Partly Cloudy
12:51 PM 39.9 °F 35.8 °F 17.1 °F 40% 30.31 in 10.0 mi NW 5.8 mph 18.4 mph N/A   Partly Cloudy
1:51 PM 42.1 °F 36.6 °F 17.1 °F 37% 30.30 in 10.0 mi NNW 9.2 mph - N/A   Partly Cloudy
2:51 PM 41.0 °F 37.1 °F 15.1 °F 35% 30.29 in 10.0 mi WNW 5.8 mph - N/A   Partly Cloudy
3:51 PM 42.1 °F 37.1 °F 16.0 °F 35% 30.31 in 10.0 mi WNW 8.1 mph - N/A   Scattered Clouds
4:51 PM 41.0 °F 33.1 °F 18.0 °F 40% 30.32 in 10.0 mi NW 15.0 mph - N/A   Scattered Clouds
5:51 PM 39.9 °F 32.9 °F 18.0 °F 41% 30.35 in 10.0 mi WNW 11.5 mph - N/A   Clear
6:51 PM 39.9 °F 35.8 °F 17.1 °F 40% 30.36 in 10.0 mi NW 5.8 mph - N/A   Partly Cloudy
7:51 PM 39.0 °F 32.8 °F 18.0 °F 43% 30.37 in 10.0 mi North 9.2 mph - N/A   Partly Cloudy
8:51 PM 39.0 °F 34.8 °F 18.0 °F 43% 30.37 in 10.0 mi North 5.8 mph - N/A   Partly Cloudy
9:51 PM 37.9 °F 33.5 °F 19.0 °F 47% 30.37 in 10.0 mi NNE 5.8 mph - N/A   Clear
10:51 PM 37.0 °F 34.5 °F 19.0 °F 48% 30.37 in 10.0 mi Variable 3.5 mph - N/A   Partly Cloudy
11:51 PM 37.0 °F 34.5 °F 17.1 °F 44% 30.35 in 10.0 mi East 3.5 mph - N/A   Scattered Clouds